Regional Weather Roundup
Issued by NWS

Home | Current Version | Previous Version | Text Only | Print | Product List | Glossary Off
Versions: 1 2 3 4 5 6 7 8 9 10 11 12 13 14 15 16 17 18 19 20 21 22 23 24 25 26 27 28 29 30 31 32 33 34 35 36 37 38 39 40 41 42 43 44 45 46 47 48 49 50

000
ASUS43 KMKX 182211
RWRWI

WISCONSIN REGIONAL WEATHER ROUNDUP
NATIONAL WEATHER SERVICE MILWAUKEE/SULLIVAN WI
400 PM CST THU JAN 18 2018

NOTE: "FAIR" INDICATES FEW OR NO CLOUDS BELOW 12,000 FEET WITH NO
SIGNIFICANT WEATHER AND/OR OBSTRUCTIONS TO VISIBILITY.

WIZ001-002-006>008-014>016-023>028-182300-
NORTHWEST WISCONSIN

CITY           SKY/WX    TMP DP  RH WIND       PRES   REMARKS
SUPERIOR ARPT  FAIR      37  26  65 W3        29.73F
ASHLAND        FAIR      34  25  69 W6        29.74  WCI  29
HAYWARD        FAIR      37  23  56 SW7       29.74R WCI  32
SIREN          FAIR      37  24  59 W6        29.76S WCI  32
CUMBERLAND     FAIR      32  21  64 SW6       29.75S WCI  26
RICE LAKE      FAIR      35  22  59 SW5       29.78S WCI  31
CHETEK         FAIR      36  21  55 W6        29.77S WCI  31
LADYSMITH      FAIR      36  23  59 SW6       29.77R WCI  31
EAU CLAIRE     FAIR      36  23  59 SW10      29.78S WCI  28
MENOMONIE      FAIR      38  23  56 S6        29.79S WCI  33
NEW RICHMOND   FAIR      37  22  55 SW6       29.78S WCI  32
OSCEOLA        FAIR      37  24  59 SW3       29.80S
$$

WIZ003>005-009-010-017-018-182300-
NORTH CENTRAL WISCONSIN

CITY           SKY/WX    TMP DP  RH WIND       PRES   REMARKS
MANITOWISH WTR FAIR      32  23  70 W6        29.71R WCI  26
ARBOR VITAE    FAIR      37  27  69 CALM      29.70R
WOODRUFF       FAIR      37  27  69 CALM      29.70R
RHINELANDER    FAIR      34  25  69 W12       29.71S WCI  25
EAGLE RIVER    CLOUDY    32  23  69 W3        29.69F
LAND O LAKES   CLOUDY    32  24  74 W3        29.71S
PHILLIPS       FAIR      34  23  64 SW8       29.71S WCI  27
TOMAHAWK       FAIR      35  23  62 W3        29.73R
MEDFORD        FAIR      32  21  63 SW7       29.75R WCI  26
MERRILL        FAIR      35  22  58 SW7       29.74S WCI  29
$$

WIZ029-030-035-036-043>047-182300-
CENTRAL WISCONSIN

CITY           SKY/WX    TMP DP  RH WIND       PRES   REMARKS
WAUSAU         FAIR      33  20  58 SW9       29.74S WCI  25
MOSINEE        PTCLDY    34  21  60 SW14      29.77S WCI  24
MARSHFIELD     FAIR      34  21  59 W10       29.76S WCI  26
STEVENS POINT  FAIR      35  20  54 SW10      29.78S WCI  27
WAUPACA        FAIR      38  21  50 SW12      29.80S WCI  31
WAUTOMA        FAIR      36  21  54 SW13      29.82R WCI  27
WISC RAPIDS    FAIR      36  19  50 SW16      29.81S WCI  26
CAMP DOUGLAS   PTCLDY    36  23  60 SW9       29.83S WCI  29
$$

WIZ011>013-019>022-031-037>040-048>050-182300-
NORTHEAST WISCONSIN

CITY           SKY/WX    TMP DP  RH WIND       PRES   REMARKS
ANTIGO         FAIR      31  20  63 W9G16     29.73S WCI  23
SHAWANO        FAIR      38  21  50 SW9       29.76R WCI  32
OCONTO         FAIR      33  21  60 SW9       29.76S WCI  26
STURGEON BAY   FAIR      32  21  64 SW9       29.78R WCI  24
GREEN BAY      FAIR      32  21  64 SW14      29.79R WCI  22
MANITOWOC      NOT AVBL
APPLETON       PTCLDY    34  19  55 SW14      29.79R WCI  24
CLINTONVILLE   FAIR      36  21  55 SW8       29.78S WCI  29
OSHKOSH        FAIR      30  21  69 SW10      29.83R WCI  21
$$

WIZ032>034-041-042-053>061-182300-
SOUTHWEST WISCONSIN

CITY           SKY/WX    TMP DP  RH WIND       PRES   REMARKS
LA CROSSE      FAIR      36  24  62 S8        29.86R WCI  30
SPARTA         FAIR      37  23  58 CALM      29.86R
VIROQUA        FAIR      33  24  71 SW10      29.85S WCI  24
BOSCOBEL       FAIR      36  21  54 SW9       29.91S WCI  29
PRAIRIE DU CHI FAIR      35  19  53 SW10      29.92R WCI  27
PLATTEVILLE    FAIR      33  22  63 SW14      29.92S WCI  24
$$

WIZ056-057-062-063-064-067-068-182300-
SOUTH CENTRAL WISCONSIN

CITY           SKY/WX    TMP DP  RH WIND       PRES   REMARKS
REEDSBURG      FAIR      32  20  61 SW10      29.86F WCI  24
BARABOO/DELLS  FAIR      32  19  59 SW8       29.85F WCI  25
LONE ROCK      FAIR      33  21  61 SW8       29.90S WCI  26
MINERAL POINT  FAIR      34  23  64 SW10      29.90R WCI  26
MADISON        FAIR      31  19  61 SW8       29.91R WCI  23
MIDDLETON      FAIR      33  20  59 SW12      29.90R WCI  24
WATERTOWN      FAIR      28  19  69 SW8       29.89R WCI  20
MONROE         FAIR      32  19  59 SW22      29.91R WCI  19
JANESVILLE     CLEAR     32  19  59 SW16G23   29.92S WCI  21
$$

WIZ051-052-058>065-066-070>072-182300-
SOUTHEAST WISCONSIN

CITY           SKY/WX    TMP DP  RH WIND       PRES   REMARKS
MILWAUKEE      FAIR      33  19  56 SW14G24   29.90S WCI  23
WAUKESHA       CLEAR     28  18  64 SW15G22   29.90S WCI  17
MILWAUKEE/TIMM CLEAR     30  16  55 SW12G21   29.89S WCI  21
RACINE         FAIR      31  18  58 W15G29    29.92S WCI  20
BURLINGTON     FAIR      29  18  63 SW12      29.92S WCI  20
KENOSHA        FAIR      32  18  56 SW18G30   29.92S WCI  20
FOND DU LAC    FAIR      31  18  58 SW13      29.85R WCI  21
SHEBOYGAN      FAIR      31  21  66 SW17      29.83S WCI  19
WEST BEND      FAIR      30  19  64 SW15G21   29.85S WCI  19
JUNEAU         FAIR      28  19  69 SW15      29.88R WCI  16
$$

LSZ147-162-182300-
LAKE SUPERIOR

STATION/POSITION TIME  TEMP    WIND        PRES    WAVE
                       AIR SEA DIR/SP/G            HT/PER
                 (UTC) (F)     (DEG/KT/KT) (MB)    (FT/S)
DEVILS ISLAND    2200   34     260/ 12/ 15 1007.2R
SAXON HARBOR     2140   36     240/  3/  8 1007.1R
$$

LMZ867-665-643>646-182300-
LAKE MICHIGAN

STATION/POSITION TIME  TEMP    WIND        PRES    WAVE
                       AIR SEA DIR/SP/G            HT/PER
                 (UTC) (F)     (DEG/KT/KT) (MB)    (FT/S)
NORTHPORT PIER   2152   30     210/ 11     1008.1R
KEWAUNEE LAKESHO 2142   33     230/  8/ 10 1007.8R
SHEBOYGAN LAKESH 2200   33     230/ 14/ 16 1011.1S
PORT WASHINGTON  2140   34     240/ 10/ 18 1011.9F
MILWAUKEE LAKESH 2150   32     240/ 15/ 16   N/A
KENOSHA   LAKESH 2200   33     230/ 14/ 23 1013.9
$$

TC  - TEMPERATURE IN CELSIUS
VSB - VISIBILITY IN STATUTE MILES
WCI - WIND CHILL INDEX
HX  - HEAT INDEX




USA.gov is the U.S. government's official web portal to all federal, state and local government web resources and services.